Weather History for KBVE - June, 2014

Change the Weather History Date:

Sunday, June 8, 2014

  Actual Average Record
Temperature  
Mean Temperature 83 °F -  
Max Temperature 86 °F - - ()
Min Temperature 80 °F - - ()
Cooling Degree Days 18    
Growing Degree Days 33 (Base 50)    
Moisture  
Dew Point 73 °F    
Average Humidity 76    
Maximum Humidity 85    
Minimum Humidity 67    
Precipitation  
Precipitation 0.00 in - - ()
Sea Level Pressure  
Sea Level Pressure 29.97 in    
Wind  
Wind Speed 9 mph (SW)    
Max Wind Speed 12 mph    
Max Gust Speed -    
Visibility 10 miles    
Events      
T = Trace of Precipitation, MM = Missing Value Source: NWS Daily Summary

Daily Weather History Graph

Daily Weather History Graph

Search for Another Location

Airport or City:

Trip Planner

Search our weather history database for the weather conditions in past years. The results will help you decide how hot, cold, wet, or windy it might be!

Date:

Astronomy

Jun. 08, 2014 Rise Set
Actual Time 5:57 AM CDT 7:56 PM CDT
Civil Twilight 5:30 AM CDT 8:23 PM CDT
Nautical Twilight 4:57 AM CDT 8:55 PM CDT
Astronomical Twilight 4:22 AM CDT 9:30 PM CDT
Moon 3:32 PM CDT (6/8) 2:29 AM CDT (6/8)
Length of Visible Light 14h 52m
Length of Day
13h 58m
Waxing Gibbous, 77% of the Moon is Illuminated
Jun 8
Waxing Gibbous
Jun 12
Full
Jun 19
Last Quarter
Jun 27
New
Jul 5
First Quarter

Hourly Weather History & Observations

Time (CDT) Temp. Heat Index Dew Point Humidity Pressure Visibility Wind Dir Wind Speed Gust Speed Precip Events Conditions
12:51 AM 81.0 °F 86.2 °F 73.9 °F 79% 29.97 in 10.0 mi WSW 11.5 mph - N/A   Clear
1:51 AM 81.0 °F 86.2 °F 73.9 °F 79% 29.96 in 10.0 mi WSW 10.4 mph - N/A   Partly Cloudy
2:31 AM 81.0 °F 86.2 °F 73.9 °F 79% 29.96 in 10.0 mi WSW 11.5 mph - N/A   Mostly Cloudy
2:38 AM 80.1 °F 84.5 °F 73.9 °F 81% 29.97 in 10.0 mi WSW 8.1 mph - N/A   Scattered Clouds
2:51 AM 80.1 °F 84.5 °F 73.9 °F 81% 29.96 in 10.0 mi West 8.1 mph - N/A   Partly Cloudy
3:16 AM 81.0 °F 86.2 °F 73.9 °F 79% 29.97 in 10.0 mi WSW 9.2 mph - N/A   Mostly Cloudy
3:49 AM 80.6 °F 85.4 °F 73.4 °F 79% 29.96 in 10.0 mi WSW 8.1 mph - N/A   Partly Cloudy
3:51 AM 80.1 °F 84.5 °F 73.9 °F 81% 29.96 in 10.0 mi WSW 8.1 mph - N/A   Partly Cloudy
4:51 AM 80.1 °F 84.2 °F 73.0 °F 79% 29.97 in 10.0 mi WSW 6.9 mph - N/A   Scattered Clouds
5:51 AM 80.1 °F 84.2 °F 73.0 °F 79% 29.99 in 10.0 mi WSW 6.9 mph - N/A   Scattered Clouds
6:51 AM 81.0 °F 85.8 °F 73.0 °F 77% 29.99 in 10.0 mi SW 6.9 mph - N/A   Partly Cloudy
7:51 AM 82.0 °F 86.7 °F 72.0 °F 71% 30.00 in 10.0 mi SW 9.2 mph - N/A   Clear
7:58 AM 82.0 °F 87.4 °F 73.0 °F 74% 30.00 in 10.0 mi WSW 8.1 mph - N/A   Partly Cloudy
8:51 AM 82.9 °F 88.8 °F 73.0 °F 72% 30.01 in 10.0 mi WSW 8.1 mph - N/A   Clear
9:51 AM 84.0 °F 91.2 °F 73.9 °F 72% 30.01 in 10.0 mi WSW 11.5 mph - N/A   Clear
10:51 AM 84.0 °F 90.2 °F 73.0 °F 69% 30.01 in 10.0 mi SW 11.5 mph - N/A   Partly Cloudy
11:51 AM 84.0 °F 91.2 °F 73.9 °F 72% 30.01 in 10.0 mi WSW 11.5 mph - N/A   Clear
12:51 PM 84.0 °F 91.2 °F 73.9 °F 72% 29.99 in 10.0 mi WSW 10.4 mph - N/A   Partly Cloudy
1:51 PM 86.0 °F 95.1 °F 75.0 °F 70% 29.99 in 10.0 mi WSW 9.2 mph - N/A   Partly Cloudy
2:51 PM 84.0 °F 90.2 °F 73.0 °F 69% 29.97 in 10.0 mi WSW 9.2 mph - N/A   Partly Cloudy
3:51 PM 84.9 °F 91.4 °F 73.0 °F 67% 29.95 in 10.0 mi WSW 8.1 mph - N/A   Clear
4:51 PM 84.0 °F 90.2 °F 73.0 °F 69% 29.94 in 10.0 mi WSW 8.1 mph - N/A   Clear
5:51 PM 84.0 °F 90.2 °F 73.0 °F 69% 29.92 in 10.0 mi SW 9.2 mph - N/A   Clear
6:51 PM 82.9 °F 88.8 °F 73.0 °F 72% 29.92 in 10.0 mi SW 8.1 mph - N/A   Clear
7:51 PM 82.0 °F 87.4 °F 73.0 °F 74% 29.92 in 10.0 mi SSW 5.8 mph - N/A   Clear
8:51 PM 81.0 °F 85.8 °F 73.0 °F 77% 29.93 in 10.0 mi SSW 8.1 mph - N/A   Clear
9:51 PM 80.1 °F 84.2 °F 73.0 °F 79% 29.95 in 10.0 mi South 9.2 mph - N/A   Clear
10:51 PM 80.1 °F 85.1 °F 75.0 °F 85% 29.96 in 10.0 mi South 9.2 mph - N/A   Clear
11:51 PM 80.1 °F 85.1 °F 75.0 °F 85% 29.96 in 10.0 mi South 10.4 mph - N/A   Clear